Tracking 18673 objects as of 25-June-2017
HD Live streaming from Space Station
objects crossing your sky now

OPS 5058 (DMSP 5B F2)

Track OPS 5058 (DMSP 5B F2) now!
10-day predictions
OPS 5058 (DMSP 5B F2) is classified as:


NORAD ID: 5903
Int'l Code: 1972-018A
Perigee: 781.7 km
Apogee: 856.2 km
Inclination: 99.0 °
Period: 101.1 minutes
Semi major axis: 7189 km
RCS: 1.4687 m2 (large)
Launch date: March 24, 1972
Source: United States (US)
Launch site: AIR FORCE WESTERN TEST RANGE (AFWTR)
Your satellite tracking list
Your tracking list is empty





NASA's NSSDC Master Catalog

Two Line Element Set (TLE):
1  5903U 72018A   17176.15308680 +.00000013 +00000-0 +25346-4 0  9996
2  5903 098.9876 243.2389 0051811 166.0908 194.1711 14.24004977423396
Source of the keplerian elements: AFSPC